AAL2797 KPHL-KSFO

Flight info

Callsign AAL2797
Flight time N/A
Altitude 32000
Route PTW SARAA RAV PSB J60 DJB ANNTS YOLUR OBK KP69G OVR/N0456F340 LNK AVVVS ELLFF Q136 MANRD KROST INYOE DYAMD5
Aircraft A321/M-SDE3FGHIRWY/LB1

Departure

Time N/A
Airport Philadelphia International Airport (KPHL)

Arrival

Time 2026-05-04 20:10
Airport San Francisco International Airport (KSFO)
Time Latitude Longitude Altitude Speed Heading
2026-05-04 17:26 40.55493 -100.72894 31742 ft 400 kts 263°
2026-05-04 17:27 40.54692 -100.80133 31744 ft 400 kts 263°
2026-05-04 17:28 40.53221 -100.93361 31737 ft 399 kts 263°
2026-05-04 17:29 40.50769 -101.14992 31735 ft 399 kts 263°
2026-05-04 17:31 40.48699 -101.32989 31759 ft 398 kts 263°
2026-05-04 17:32 40.46606 -101.50961 31808 ft 398 kts 263°
2026-05-04 17:33 40.44910 -101.65310 31807 ft 397 kts 263°
2026-05-04 17:34 40.43203 -101.79646 31772 ft 398 kts 263°
2026-05-04 17:35 40.41034 -101.97605 32415 ft 397 kts 263°
2026-05-04 17:35 40.40604 -102.01130 32718 ft 396 kts 263°
2026-05-04 17:36 40.40169 -102.04681 33014 ft 394 kts 263°
2026-05-04 17:36 40.39736 -102.08215 33364 ft 391 kts 263°
2026-05-04 17:36 40.39306 -102.11722 33684 ft 389 kts 263°
2026-05-04 17:37 40.38451 -102.18693 33730 ft 386 kts 263°
2026-05-04 17:37 40.37591 -102.25631 33727 ft 385 kts 263°
2026-05-04 17:38 40.36730 -102.32556 33730 ft 385 kts 263°
2026-05-04 17:38 40.35865 -102.39489 33723 ft 385 kts 263°
2026-05-04 17:39 40.34557 -102.49860 33743 ft 384 kts 263°
2026-05-04 17:39 40.33687 -102.56759 33743 ft 384 kts 263°
2026-05-04 17:40 40.32810 -102.63653 33742 ft 383 kts 263°
2026-05-04 17:40 40.31923 -102.70542 33743 ft 383 kts 263°
2026-05-04 17:41 40.31039 -102.77422 33731 ft 383 kts 264°
2026-05-04 17:41 40.30153 -102.84296 33746 ft 382 kts 263°
2026-05-04 17:42 40.29264 -102.91131 33751 ft 380 kts 264°
2026-05-04 17:42 40.28379 -102.97953 33748 ft 380 kts 264°
2026-05-04 17:43 40.27489 -103.04758 33750 ft 379 kts 263°
2026-05-04 17:43 40.26593 -103.11554 33749 ft 379 kts 263°
2026-05-04 17:44 40.26152 -103.14910 33877 ft 378 kts 264°
2026-05-04 17:44 40.25705 -103.18298 33891 ft 378 kts 264°
2026-05-04 17:44 40.24805 -103.25062 33896 ft 377 kts 263°
2026-05-04 17:45 40.23903 -103.31809 33896 ft 376 kts 264°
2026-05-04 17:45 40.22997 -103.38598 33872 ft 376 kts 263°
2026-05-04 17:46 40.22095 -103.45278 33841 ft 375 kts 263°
2026-05-04 17:46 40.21179 -103.52003 33799 ft 375 kts 263°
2026-05-04 17:47 40.20261 -103.58718 33806 ft 375 kts 263°
2026-05-04 17:47 40.19348 -103.65426 33820 ft 374 kts 263°
2026-05-04 17:48 40.18431 -103.72131 33832 ft 374 kts 263°
2026-05-04 17:48 40.17511 -103.78831 33834 ft 374 kts 263°
2026-05-04 17:49 40.16587 -103.85525 33824 ft 374 kts 263°
2026-05-04 17:49 40.15658 -103.92219 33794 ft 374 kts 263°
2026-05-04 17:50 40.14723 -103.98907 33777 ft 374 kts 263°
2026-05-04 17:50 40.13787 -104.05595 33752 ft 374 kts 263°
2026-05-04 17:51 40.12844 -104.12273 33704 ft 374 kts 263°
2026-05-04 17:51 40.11901 -104.18949 33706 ft 374 kts 263°
2026-05-04 17:52 40.10950 -104.25629 33694 ft 374 kts 263°
2026-05-04 17:52 40.09996 -104.32298 33700 ft 374 kts 263°
2026-05-04 17:53 40.09040 -104.38966 33691 ft 373 kts 263°
2026-05-04 17:53 40.08083 -104.45632 33700 ft 373 kts 263°
2026-05-04 17:54 40.07122 -104.52294 33806 ft 373 kts 263°
2026-05-04 17:54 40.06162 -104.58953 33826 ft 373 kts 263°
2026-05-04 17:55 40.05191 -104.65607 33843 ft 373 kts 263°
2026-05-04 17:55 40.04215 -104.72256 33843 ft 373 kts 263°
2026-05-04 17:56 40.03249 -104.78913 33841 ft 373 kts 264°
2026-05-04 17:56 40.02487 -104.85545 33818 ft 372 kts 265°
2026-05-04 17:57 40.01792 -104.92235 33794 ft 372 kts 265°
2026-05-04 17:57 40.01060 -104.98921 33770 ft 372 kts 264°
2026-05-04 17:58 40.00679 -105.02264 33887 ft 373 kts 264°
2026-05-04 17:58 40.00294 -105.05608 33895 ft 373 kts 264°
2026-05-04 17:58 39.99521 -105.12293 33887 ft 373 kts 264°
2026-05-04 17:59 39.98750 -105.18985 33915 ft 373 kts 264°
2026-05-04 18:00 39.97585 -105.29014 33892 ft 373 kts 264°
2026-05-04 18:00 39.96799 -105.35718 33876 ft 374 kts 264°
2026-05-04 18:01 39.96012 -105.42421 33861 ft 374 kts 264°
2026-05-04 18:01 39.95219 -105.49123 33851 ft 374 kts 264°
2026-05-04 18:02 39.94027 -105.59186 33847 ft 374 kts 264°
2026-05-04 18:02 39.93222 -105.65888 33819 ft 375 kts 264°
2026-05-04 18:03 39.92410 -105.72617 33831 ft 377 kts 263°
2026-05-04 18:03 39.91594 -105.79373 33859 ft 378 kts 263°
2026-05-04 18:04 39.90774 -105.86135 33863 ft 379 kts 263°
2026-05-04 18:05 39.89529 -105.96301 33884 ft 379 kts 263°
2026-05-04 18:05 39.88698 -106.03040 33867 ft 380 kts 263°
2026-05-04 18:06 39.87438 -106.13244 33871 ft 381 kts 263°
2026-05-04 18:06 39.86590 -106.20061 33876 ft 382 kts 263°
2026-05-04 18:07 39.85738 -106.26890 33895 ft 382 kts 263°
2026-05-04 18:07 39.84879 -106.33718 33902 ft 382 kts 263°
2026-05-04 18:08 39.84012 -106.40552 33888 ft 383 kts 262°
2026-05-04 18:08 39.83144 -106.47383 33897 ft 383 kts 262°
2026-05-04 18:09 39.81399 -106.61052 33908 ft 383 kts 262°
2026-05-04 18:10 39.80520 -106.67879 33912 ft 383 kts 262°
2026-05-04 18:10 39.79629 -106.74702 33913 ft 383 kts 262°
2026-05-04 18:11 39.78739 -106.81516 33916 ft 382 kts 262°
2026-05-04 18:11 39.77850 -106.88327 34029 ft 382 kts 262°
2026-05-04 18:12 39.76965 -106.95133 34040 ft 382 kts 262°
2026-05-04 18:12 39.76069 -107.01935 34026 ft 381 kts 262°
2026-05-04 18:13 39.75165 -107.08720 34013 ft 381 kts 262°
2026-05-04 18:14 39.73807 -107.18885 33978 ft 381 kts 262°
2026-05-04 18:14 39.72896 -107.25663 33958 ft 381 kts 262°
2026-05-04 18:15 39.71221 -107.38067 33919 ft 381 kts 262°
2026-05-04 18:16 39.70151 -107.45932 33935 ft 380 kts 261°
2026-05-04 18:16 39.69375 -107.51598 33942 ft 380 kts 261°
2026-05-04 18:17 39.67981 -107.61736 33962 ft 380 kts 261°
2026-05-04 18:18 39.66594 -107.71816 33976 ft 380 kts 261°
2026-05-04 18:18 39.65655 -107.78566 33976 ft 380 kts 261°
2026-05-04 18:18 39.65185 -107.81934 33873 ft 380 kts 261°
2026-05-04 18:19 39.64243 -107.88674 33866 ft 379 kts 261°
2026-05-04 18:19 39.63294 -107.95403 33868 ft 379 kts 261°
2026-05-04 18:20 39.62344 -108.02125 33870 ft 379 kts 261°
2026-05-04 18:20 39.61391 -108.08846 33871 ft 379 kts 261°
2026-05-04 18:21 39.60435 -108.15562 33870 ft 379 kts 261°
2026-05-04 18:21 39.59476 -108.22275 33872 ft 379 kts 261°
2026-05-04 18:22 39.58521 -108.28988 33872 ft 379 kts 261°
2026-05-04 18:22 39.57678 -108.35725 33873 ft 379 kts 262°
2026-05-04 18:23 39.56885 -108.42467 33871 ft 379 kts 262°
2026-05-04 18:23 39.56061 -108.49208 33849 ft 379 kts 262°
2026-05-04 18:24 39.55211 -108.55942 33851 ft 378 kts 261°
2026-05-04 18:24 39.54357 -108.62660 33849 ft 378 kts 261°
2026-05-04 18:25 39.53501 -108.69387 33851 ft 378 kts 261°
2026-05-04 18:25 39.52640 -108.76115 33844 ft 379 kts 261°
2026-05-04 18:26 39.51782 -108.82847 33844 ft 379 kts 261°
2026-05-04 18:26 39.50928 -108.89532 33835 ft 379 kts 261°
2026-05-04 18:27 39.50061 -108.96253 33840 ft 378 kts 260°
2026-05-04 18:27 39.49186 -109.02959 33840 ft 379 kts 261°
2026-05-04 18:28 39.48307 -109.09683 33841 ft 378 kts 261°
2026-05-04 18:28 39.47432 -109.16397 33834 ft 378 kts 260°
2026-05-04 18:29 39.46549 -109.23121 33836 ft 379 kts 261°
2026-05-04 18:29 39.45659 -109.29844 33852 ft 379 kts 261°
2026-05-04 18:30 39.44318 -109.39910 33857 ft 378 kts 261°
2026-05-04 18:31 39.43417 -109.46617 33840 ft 378 kts 260°
2026-05-04 18:31 39.42518 -109.53317 33852 ft 378 kts 260°
2026-05-04 18:32 39.41618 -109.60014 33864 ft 378 kts 260°
2026-05-04 18:32 39.40704 -109.66713 33856 ft 378 kts 260°
2026-05-04 18:33 39.39785 -109.73417 33860 ft 379 kts 260°
2026-05-04 18:33 39.38873 -109.80126 33858 ft 379 kts 260°
2026-05-04 18:34 39.37953 -109.86825 33858 ft 379 kts 260°
2026-05-04 18:34 39.37026 -109.93526 33864 ft 379 kts 260°
2026-05-04 18:35 39.36102 -110.00229 33859 ft 379 kts 260°
2026-05-04 18:35 39.35215 -110.06936 33844 ft 378 kts 261°
2026-05-04 18:36 39.34328 -110.13637 33845 ft 379 kts 260°
2026-05-04 18:36 39.33431 -110.20328 33849 ft 378 kts 260°
2026-05-04 18:37 39.32529 -110.27013 33849 ft 377 kts 259°
2026-05-04 18:37 39.31617 -110.33697 33841 ft 379 kts 260°
2026-05-04 18:38 39.30698 -110.40402 33828 ft 380 kts 260°
2026-05-04 18:38 39.29781 -110.47126 33827 ft 381 kts 260°
2026-05-04 18:39 39.28855 -110.53864 33828 ft 382 kts 259°
2026-05-04 18:39 39.27924 -110.60620 33829 ft 382 kts 259°
2026-05-04 18:40 39.26987 -110.67377 33823 ft 382 kts 259°
2026-05-04 18:40 39.26039 -110.74125 33832 ft 382 kts 259°
2026-05-04 18:41 39.25089 -110.80882 33823 ft 383 kts 259°
2026-05-04 18:41 39.24141 -110.87596 33832 ft 383 kts 259°
2026-05-04 18:42 39.23181 -110.94393 33836 ft 383 kts 259°
2026-05-04 18:42 39.22294 -111.01116 33844 ft 383 kts 260°
2026-05-04 18:43 39.21416 -111.07889 33848 ft 383 kts 260°
2026-05-04 18:43 39.20535 -111.14654 33847 ft 381 kts 259°
2026-05-04 18:44 39.19646 -111.21397 33857 ft 383 kts 259°
2026-05-04 18:44 39.18749 -111.28166 33864 ft 384 kts 259°
2026-05-04 18:45 39.17844 -111.34946 33866 ft 384 kts 259°
2026-05-04 18:45 39.16932 -111.41723 33857 ft 384 kts 259°
2026-05-04 18:46 39.16016 -111.48500 33859 ft 384 kts 259°
2026-05-04 18:46 39.15098 -111.55278 33854 ft 384 kts 259°
2026-05-04 18:47 39.14175 -111.62063 33851 ft 384 kts 259°
2026-05-04 18:47 39.13243 -111.68837 33850 ft 384 kts 259°
2026-05-04 18:48 39.12314 -111.75604 33849 ft 384 kts 259°
2026-05-04 18:48 39.11385 -111.82363 33842 ft 383 kts 259°
2026-05-04 18:49 39.10446 -111.89125 33836 ft 384 kts 259°
2026-05-04 18:49 39.09506 -111.95883 33836 ft 384 kts 259°
2026-05-04 18:50 39.08559 -112.02643 33861 ft 384 kts 259°
2026-05-04 18:50 39.07615 -112.09403 33875 ft 383 kts 259°
2026-05-04 18:51 39.06665 -112.16157 33887 ft 384 kts 258°
2026-05-04 18:51 39.05700 -112.22925 33907 ft 384 kts 258°
2026-05-04 18:52 39.04736 -112.29675 33924 ft 384 kts 258°
2026-05-04 18:52 39.03767 -112.36425 33927 ft 384 kts 258°
2026-05-04 18:53 39.02803 -112.43169 33928 ft 383 kts 258°
2026-05-04 18:53 39.01833 -112.49908 33917 ft 383 kts 258°
2026-05-04 18:53 39.01344 -112.53278 33807 ft 384 kts 258°
2026-05-04 18:54 39.00856 -112.56649 33809 ft 384 kts 258°
2026-05-04 18:54 38.99877 -112.63394 33793 ft 384 kts 258°
2026-05-04 18:55 38.98898 -112.70143 33793 ft 384 kts 258°
2026-05-04 18:55 38.97412 -112.80263 33787 ft 384 kts 257°
2026-05-04 18:56 38.96411 -112.87018 33777 ft 385 kts 257°
2026-05-04 18:56 38.95413 -112.93774 33778 ft 385 kts 257°
2026-05-04 18:57 38.94410 -113.00537 33775 ft 386 kts 257°
2026-05-04 18:57 38.93398 -113.07308 33775 ft 386 kts 257°
2026-05-04 18:58 38.92381 -113.14081 33767 ft 387 kts 257°
2026-05-04 18:58 38.91361 -113.20866 33764 ft 387 kts 257°
2026-05-04 18:59 38.90337 -113.27664 33764 ft 388 kts 257°
2026-05-04 18:59 38.89298 -113.34465 33765 ft 388 kts 257°
2026-05-04 19:00 38.88435 -113.40124 33768 ft 389 kts 257°
2026-05-04 19:00 38.87396 -113.46922 33768 ft 388 kts 257°
2026-05-04 19:01 38.86352 -113.53724 33769 ft 389 kts 257°
2026-05-04 19:01 38.85297 -113.60537 33767 ft 389 kts 256°
2026-05-04 19:02 38.84236 -113.67348 33768 ft 389 kts 256°
2026-05-04 19:02 38.83177 -113.74158 33766 ft 389 kts 256°
2026-05-04 19:03 38.82118 -113.80964 33771 ft 390 kts 256°
2026-05-04 19:03 38.81050 -113.87779 33767 ft 390 kts 256°
2026-05-04 19:04 38.79977 -113.94583 33769 ft 390 kts 256°
2026-05-04 19:04 38.78903 -114.01396 33773 ft 390 kts 256°
2026-05-04 19:05 38.77824 -114.08208 33788 ft 390 kts 256°
2026-05-04 19:05 38.76731 -114.15038 33782 ft 392 kts 256°
2026-05-04 19:06 38.75639 -114.21881 33777 ft 393 kts 256°
2026-05-04 19:06 38.74538 -114.28734 33781 ft 393 kts 256°
2026-05-04 19:07 38.73433 -114.35592 33777 ft 393 kts 256°
2026-05-04 19:07 38.72328 -114.42453 33797 ft 393 kts 256°
2026-05-04 19:08 38.71217 -114.49311 33789 ft 393 kts 255°
2026-05-04 19:08 38.70096 -114.56163 33790 ft 394 kts 255°
2026-05-04 19:09 38.68972 -114.63020 33791 ft 394 kts 255°
2026-05-04 19:09 38.67847 -114.69880 33784 ft 394 kts 255°
2026-05-04 19:10 38.66724 -114.76694 33781 ft 395 kts 255°
2026-05-04 19:10 38.65578 -114.83605 33782 ft 394 kts 255°
2026-05-04 19:11 38.64436 -114.90460 33782 ft 394 kts 255°
2026-05-04 19:11 38.63292 -114.97310 33783 ft 394 kts 255°
2026-05-04 19:12 38.61571 -115.07606 33783 ft 395 kts 255°
2026-05-04 19:13 38.60414 -115.14457 33778 ft 394 kts 255°
2026-05-04 19:13 38.59252 -115.21305 33776 ft 394 kts 255°
2026-05-04 19:14 38.58089 -115.28146 33768 ft 394 kts 255°
2026-05-04 19:14 38.56927 -115.34992 33781 ft 394 kts 255°
2026-05-04 19:15 38.55767 -115.41789 33771 ft 394 kts 255°
2026-05-04 19:15 38.54589 -115.48634 33770 ft 395 kts 254°
2026-05-04 19:16 38.53407 -115.55483 33764 ft 395 kts 254°
2026-05-04 19:16 38.52227 -115.62330 33762 ft 394 kts 254°
2026-05-04 19:17 38.51039 -115.69166 33760 ft 395 kts 254°
2026-05-04 19:17 38.49848 -115.76017 33757 ft 396 kts 254°
2026-05-04 19:18 38.48650 -115.82876 33763 ft 396 kts 254°
2026-05-04 19:18 38.47436 -115.89730 33768 ft 396 kts 254°
2026-05-04 19:19 38.46221 -115.96584 33785 ft 396 kts 253°
2026-05-04 19:19 38.45012 -116.03438 33786 ft 395 kts 254°
2026-05-04 19:20 38.43806 -116.10279 33784 ft 395 kts 253°
2026-05-04 19:20 38.42584 -116.17115 33783 ft 395 kts 253°
2026-05-04 19:21 38.41339 -116.23946 33776 ft 395 kts 253°
2026-05-04 19:21 38.40021 -116.30742 33799 ft 395 kts 252°
2026-05-04 19:22 38.38688 -116.37527 33793 ft 395 kts 252°
2026-05-04 19:22 38.37364 -116.44308 33792 ft 395 kts 252°
2026-05-04 19:23 38.36043 -116.51096 33794 ft 395 kts 252°
2026-05-04 19:23 38.34711 -116.57880 33811 ft 394 kts 252°
2026-05-04 19:24 38.33385 -116.64651 33807 ft 394 kts 252°
2026-05-04 19:24 38.32055 -116.71419 33801 ft 394 kts 252°
2026-05-04 19:25 38.30718 -116.78181 33806 ft 394 kts 252°
2026-05-04 19:25 38.29383 -116.84890 33806 ft 393 kts 252°
2026-05-04 19:26 38.28042 -116.91636 33810 ft 393 kts 252°
2026-05-04 19:26 38.26699 -116.98374 33806 ft 393 kts 252°
2026-05-04 19:27 38.25354 -117.05106 33797 ft 393 kts 251°
2026-05-04 19:27 38.24001 -117.11836 33792 ft 392 kts 252°
2026-05-04 19:28 38.22637 -117.18608 33817 ft 393 kts 251°
2026-05-04 19:28 38.21275 -117.25333 33805 ft 393 kts 251°
2026-05-04 19:29 38.19918 -117.32016 33797 ft 393 kts 251°
2026-05-04 19:29 38.18555 -117.38742 33792 ft 393 kts 251°
2026-05-04 19:30 38.17175 -117.45505 33796 ft 393 kts 251°
2026-05-04 19:30 38.15808 -117.52179 33801 ft 393 kts 251°
2026-05-04 19:31 38.14428 -117.58899 33790 ft 393 kts 251°
2026-05-04 19:31 38.13044 -117.65626 33783 ft 393 kts 251°
2026-05-04 19:32 38.11653 -117.72349 33782 ft 394 kts 251°
2026-05-04 19:32 38.10258 -117.79076 33780 ft 394 kts 252°
2026-05-04 19:33 38.08858 -117.85799 33779 ft 394 kts 251°
2026-05-04 19:33 38.07452 -117.92514 33781 ft 394 kts 251°
2026-05-04 19:34 38.06044 -117.99232 33780 ft 395 kts 251°
2026-05-04 19:34 38.04630 -118.05981 33755 ft 397 kts 251°
2026-05-04 19:35 38.03208 -118.12765 33765 ft 399 kts 251°
2026-05-04 19:35 38.01771 -118.19583 33769 ft 401 kts 251°
2026-05-04 19:36 38.00325 -118.26419 33765 ft 402 kts 251°
2026-05-04 19:36 37.98873 -118.33264 33778 ft 402 kts 251°
2026-05-04 19:37 37.97408 -118.40119 33798 ft 403 kts 251°
2026-05-04 19:37 37.95933 -118.46989 33800 ft 405 kts 251°
2026-05-04 19:38 37.94455 -118.53872 33796 ft 405 kts 251°
2026-05-04 19:38 37.92973 -118.60759 33799 ft 405 kts 251°
2026-05-04 19:39 37.91490 -118.67648 33857 ft 406 kts 252°
2026-05-04 19:39 37.89992 -118.74564 33853 ft 408 kts 251°
2026-05-04 19:40 37.88984 -118.81677 33873 ft 413 kts 258°
2026-05-04 19:40 37.88170 -118.88887 33878 ft 414 kts 258°
2026-05-04 19:41 37.87340 -118.96109 33904 ft 415 kts 258°
2026-05-04 19:41 37.86502 -119.03354 33897 ft 417 kts 258°
2026-05-04 19:42 37.85669 -119.10625 33851 ft 418 kts 258°
2026-05-04 19:42 37.84826 -119.17916 33880 ft 419 kts 258°
2026-05-04 19:43 37.83970 -119.25210 33941 ft 420 kts 258°
2026-05-04 19:43 37.83112 -119.32528 33902 ft 421 kts 258°
2026-05-04 19:44 37.82399 -119.38632 33929 ft 423 kts 258°
2026-05-04 19:44 37.81528 -119.45988 33932 ft 423 kts 258°
2026-05-04 19:45 37.80652 -119.53354 33970 ft 424 kts 258°
2026-05-04 19:45 37.79767 -119.60735 33996 ft 425 kts 258°
2026-05-04 19:46 37.78873 -119.68136 33991 ft 426 kts 258°
2026-05-04 19:46 37.77973 -119.75543 34015 ft 427 kts 258°
2026-05-04 19:47 37.77074 -119.82967 33932 ft 428 kts 259°
2026-05-04 19:47 37.76620 -119.86697 33667 ft 432 kts 259°
2026-05-04 19:47 37.76156 -119.90490 33391 ft 441 kts 259°
2026-05-04 19:47 37.75683 -119.94340 33141 ft 446 kts 259°
2026-05-04 19:48 37.75205 -119.98228 32886 ft 449 kts 260°
2026-05-04 19:48 37.74724 -120.02136 32628 ft 452 kts 260°
2026-05-04 19:48 37.74239 -120.06055 32376 ft 454 kts 260°
2026-05-04 19:48 37.73747 -120.10023 32107 ft 457 kts 260°
2026-05-04 19:49 37.73252 -120.14000 31887 ft 460 kts 259°
2026-05-04 19:49 37.72752 -120.18009 31637 ft 463 kts 260°
2026-05-04 19:49 37.72247 -120.22036 31379 ft 467 kts 260°
2026-05-04 19:49 37.71735 -120.26101 31140 ft 469 kts 261°
2026-05-04 19:50 37.71218 -120.30173 30700 ft 471 kts 261°
2026-05-04 19:50 37.70694 -120.34307 29571 ft 481 kts 261°
2026-05-04 19:50 37.70166 -120.38468 28879 ft 478 kts 261°
2026-05-04 19:50 37.69645 -120.42573 28611 ft 467 kts 261°
2026-05-04 19:51 37.69156 -120.46602 28123 ft 463 kts 262°
2026-05-04 19:51 37.68689 -120.50616 27478 ft 461 kts 262°
2026-05-04 19:51 37.68235 -120.54614 26969 ft 456 kts 263°
2026-05-04 19:51 37.67797 -120.58521 26704 ft 446 kts 263°
2026-05-04 19:52 37.67359 -120.62372 26205 ft 442 kts 262°
2026-05-04 19:52 37.66915 -120.66196 25678 ft 439 kts 262°
2026-05-04 19:52 37.66465 -120.69997 25155 ft 437 kts 262°
2026-05-04 19:52 37.66015 -120.73782 24648 ft 435 kts 262°
2026-05-04 19:53 37.65566 -120.77544 24160 ft 433 kts 262°
2026-05-04 19:53 37.65115 -120.81292 23693 ft 431 kts 262°
2026-05-04 19:53 37.64666 -120.85024 23177 ft 429 kts 262°
2026-05-04 19:53 37.64221 -120.88730 22713 ft 426 kts 262°
2026-05-04 19:54 37.63779 -120.92393 22163 ft 419 kts 262°
2026-05-04 19:54 37.63344 -120.95961 21477 ft 414 kts 262°
2026-05-04 19:54 37.62890 -120.99575 20748 ft 409 kts 261°
2026-05-04 19:54 37.62430 -121.03088 20068 ft 403 kts 261°
2026-05-04 19:55 37.61964 -121.06548 19408 ft 397 kts 261°
2026-05-04 19:55 37.61498 -121.09960 18756 ft 391 kts 260°
2026-05-04 19:55 37.61035 -121.13316 18061 ft 385 kts 260°
2026-05-04 19:55 37.60584 -121.16620 17314 ft 380 kts 260°
2026-05-04 19:56 37.60144 -121.19879 16592 ft 374 kts 260°
2026-05-04 19:56 37.59714 -121.23081 15973 ft 366 kts 260°
2026-05-04 19:56 37.59290 -121.26228 15497 ft 364 kts 260°
2026-05-04 19:56 37.58883 -121.29367 14998 ft 362 kts 261°
2026-05-04 19:57 37.58516 -121.32494 14511 ft 361 kts 262°
2026-05-04 19:57 37.58169 -121.35616 14017 ft 359 kts 262°
2026-05-04 19:57 37.57826 -121.38730 13517 ft 357 kts 262°
2026-05-04 19:57 37.57480 -121.41818 13004 ft 355 kts 261°
2026-05-04 19:58 37.57135 -121.44840 12569 ft 351 kts 261°
2026-05-04 19:58 37.56780 -121.47902 12150 ft 347 kts 261°
2026-05-04 19:58 37.56436 -121.50869 11648 ft 345 kts 261°
2026-05-04 19:58 37.56092 -121.53852 11221 ft 341 kts 261°
2026-05-04 19:59 37.55756 -121.56756 11093 ft 329 kts 261°
2026-05-04 19:59 37.55434 -121.59553 10966 ft 317 kts 261°
2026-05-04 19:59 37.55111 -121.62247 10825 ft 306 kts 257°
2026-05-04 19:59 37.54548 -121.64808 10438 ft 305 kts 251°
2026-05-04 20:00 37.53939 -121.67344 10194 ft 300 kts 251°
2026-05-04 20:00 37.53335 -121.69846 9848 ft 298 kts 252°
2026-05-04 20:00 37.52737 -121.72330 9490 ft 296 kts 251°
2026-05-04 20:00 37.52145 -121.74789 9267 ft 286 kts 252°
2026-05-04 20:01 37.51581 -121.77134 9046 ft 275 kts 252°
2026-05-04 20:01 37.51046 -121.79373 8915 ft 259 kts 252°
2026-05-04 20:01 37.50543 -121.81484 8729 ft 246 kts 251°
2026-05-04 20:01 37.50057 -121.83524 8340 ft 241 kts 251°
2026-05-04 20:02 37.49575 -121.85534 7923 ft 239 kts 251°
2026-05-04 20:02 37.49199 -121.87560 7487 ft 237 kts 262°
2026-05-04 20:02 37.49199 -121.89623 7041 ft 236 kts 274°
2026-05-04 20:02 37.49328 -121.91673 6619 ft 234 kts 273°
2026-05-04 20:03 37.49450 -121.93706 6271 ft 233 kts 273°
2026-05-04 20:03 37.49567 -121.95734 6001 ft 232 kts 273°
2026-05-04 20:03 37.49685 -121.97765 5740 ft 233 kts 272°
2026-05-04 20:03 37.49802 -121.99782 5464 ft 230 kts 272°
2026-05-04 20:04 37.49917 -122.01785 5217 ft 229 kts 271°
2026-05-04 20:04 37.50030 -122.03779 4957 ft 228 kts 271°
2026-05-04 20:04 37.50141 -122.05761 4688 ft 226 kts 272°
2026-05-04 20:04 37.50252 -122.07730 4430 ft 225 kts 274°
2026-05-04 20:05 37.50504 -122.09658 4167 ft 223 kts 288°
2026-05-04 20:05 37.51110 -122.11417 3915 ft 221 kts 296°
2026-05-04 20:05 37.51826 -122.13126 3674 ft 220 kts 297°
2026-05-04 20:05 37.52553 -122.14833 3429 ft 216 kts 297°
2026-05-04 20:06 37.53257 -122.16496 3169 ft 215 kts 297°
2026-05-04 20:06 37.53949 -122.18133 2922 ft 212 kts 297°
2026-05-04 20:06 37.54639 -122.19768 2797 ft 212 kts 297°
2026-05-04 20:06 37.55324 -122.21390 2566 ft 207 kts 297°
2026-05-04 20:07 37.55975 -122.22932 2339 ft 189 kts 296°
2026-05-04 20:07 37.56559 -122.24316 2080 ft 170 kts 297°
2026-05-04 20:07 37.57090 -122.25576 1879 ft 157 kts 296°
2026-05-04 20:07 37.57586 -122.26754 1670 ft 146 kts 296°
2026-05-04 20:08 37.58051 -122.27859 1460 ft 140 kts 296°
2026-05-04 20:08 37.58507 -122.28944 1266 ft 140 kts 296°
2026-05-04 20:08 37.58960 -122.30020 1073 ft 139 kts 296°
2026-05-04 20:08 37.59408 -122.31084 884 ft 136 kts 295°
2026-05-04 20:09 37.59855 -122.32149 694 ft 137 kts 296°
2026-05-04 20:09 37.60300 -122.33203 497 ft 136 kts 297°
2026-05-04 20:09 37.60742 -122.34250 307 ft 134 kts 298°
2026-05-04 20:09 37.61179 -122.35290 127 ft 134 kts 296°
2026-05-04 20:10 37.61616 -122.36315 28 ft 124 kts 296°
2026-05-04 20:10 37.61941 -122.37120 24 ft 79 kts 297°
2026-05-04 20:10 37.62122 -122.37548 23 ft 38 kts 297°
2026-05-04 20:10 37.62216 -122.37801 22 ft 22 kts 288°
2026-05-04 20:11 37.62232 -122.37971 22 ft 15 kts 268°
2026-05-04 20:11 37.62227 -122.38080 24 ft 10 kts 266°
2026-05-04 20:11 37.62212 -122.38165 24 ft 10 kts 236°
2026-05-04 20:11 37.62151 -122.38219 24 ft 12 kts 208°
2026-05-04 20:12 37.62083 -122.38264 22 ft 10 kts 207°
2026-05-04 20:12 37.62038 -122.38292 22 ft 7 kts 205°
2026-05-04 20:12 37.61997 -122.38274 22 ft 7 kts 124°
2026-05-04 20:12 37.61972 -122.38211 22 ft 9 kts 117°
2026-05-04 20:13 37.61942 -122.38139 22 ft 10 kts 117°
2026-05-04 20:13 37.61906 -122.38058 22 ft 11 kts 126°
2026-05-04 20:13 37.61846 -122.37989 23 ft 12 kts 146°
2026-05-04 20:13 37.61762 -122.37949 22 ft 14 kts 172°
2026-05-04 20:14 37.61667 -122.37965 22 ft 14 kts 201°
2026-05-04 20:14 37.61582 -122.38021 23 ft 14 kts 209°
2026-05-04 20:14 37.61493 -122.38081 22 ft 15 kts 207°
2026-05-04 20:14 37.61403 -122.38140 22 ft 14 kts 207°
2026-05-04 20:15 37.61316 -122.38196 22 ft 14 kts 207°
2026-05-04 20:15 37.61228 -122.38255 22 ft 15 kts 208°
2026-05-04 20:15 37.61138 -122.38315 23 ft 14 kts 208°
2026-05-04 20:15 37.61051 -122.38372 23 ft 13 kts 208°
2026-05-04 20:16 37.60977 -122.38437 22 ft 12 kts 216°
2026-05-04 20:16 37.60913 -122.38489 24 ft 10 kts 206°
2026-05-04 20:16 37.60884 -122.38551 22 ft 8 kts 279°
2026-05-04 20:16 37.60906 -122.38614 22 ft 7 kts 297°
2026-05-04 20:17 37.60928 -122.38646 22 ft 4 kts 347°
2026-05-04 20:17 37.60957 -122.38640 23 ft 4 kts 11°
2026-05-04 20:17 37.60985 -122.38633 23 ft 3 kts 12°
2026-05-04 20:17 37.60999 -122.38629 22 ft 1 kts 12°
2026-05-04 20:18 37.61003 -122.38628 22 ft 0 kts 12°